Flag for Colombia Weather past 2 weeks in San Andrés, Colombia

Now
81 °F

Passing clouds.


Feels Like: 86 °F
Forecast: 80 / 87 °F
Wind: 2 mph from North

Location: San Andres Isla / Sesquicentenario

Current Time: Oct 21, 2014 at 3:59:04 AM

Latest Report: Oct 21, 2014 at 3:00 AM


Visibility: N/A

Pressure: 29.78 "Hg

Humidity: 84%

Dew point: 75 °F

Location of San AndrésLocation

Historic Weather in San Andrés — Graph

°F

San Andrés temperature yesterday

Maximum temperature yesterday: 86 °F (at 11:00 AM)
Minimum temperature yesterday: 77 °F (at 4:00 PM)
Average temperature yesterday: 81 °F

Past Weeks' High & Low Weather Summary

 TemperatureHumidityPressure
High88 °F (Oct 6, 12:00 PM)100% (Oct 14, 12:00 PM)30.02 "Hg (Oct 14, 12:00 PM)
Low75 °F (Oct 8, 2:00 PM)62% (Oct 11, 4:00 PM)29.73 "Hg (Oct 9, 3:00 PM)
Average82 °F86%29.82 "Hg
* Reported Oct 6 3:00 AM — Oct 21 3:00 AM, San Andrés, Weather by CustomWeather, © 2014

Note: Actual official high and low records may vary slightly from our data, if they occured in-between our weather recording intervals... More about our weather records

Advertising

San Andrés weather history for previous 24 hours

 ConditionsComfort  
Time TempWeatherWind HumidityBarometerVisibility
3:00 AM
Oct 21
81 °FPassing clouds.2 mph84%29.78 "HgN/A
2:00 AM81 °FPassing clouds.2 mph84%29.80 "HgN/A
1:00 AM81 °FPassing clouds.2 mph79%29.81 "HgN/A
12:00 AM81 °FPassing clouds.2 mph84%29.83 "HgN/A
11:00 PM
Oct 20
81 °FPassing clouds.2 mph84%29.84 "HgN/A
10:00 PM81 °FPassing clouds.6 mph84%29.84 "HgN/A
9:00 PM79 °FPassing clouds.5 mph89%29.83 "HgN/A
8:00 PM79 °FPassing clouds.6 mph89%29.81 "HgN/A
7:00 PM79 °FPassing clouds.7 mph89%29.78 "HgN/A
6:00 PM81 °FScattered clouds.6 mph84%29.77 "HgN/A
5:00 PM79 °FScattered clouds.2 mph89%29.78 "HgN/A
4:00 PM77 °FSleet. Broken clouds.5 mph94%29.79 "HgN/A
3:00 PM86 °FPartly sunny.2 mph79%29.79 "HgN/A
2:00 PM84 °FScattered clouds.2 mph79%29.81 "HgN/A
1:00 PM86 °FPartly sunny.2 mph75%29.83 "HgN/A
12:00 PM86 °FPartly sunny.2 mph75%29.85 "HgN/A
11:00 AM86 °FPartly sunny.2 mph75%29.87 "HgN/A
10:00 AM84 °FScattered clouds.2 mph79%29.88 "HgN/A
9:00 AM84 °FPassing clouds.2 mph79%29.88 "HgN/A
8:00 AM82 °FScattered clouds.2 mph84%29.86 "HgN/A
7:00 AM79 °FScattered clouds.2 mph89%29.84 "HgN/A
6:00 AM79 °FPassing clouds.2 mph89%29.82 "HgN/A
4:00 AM79 °FPassing clouds.2 mph89%29.78 "HgN/A
3:00 AM79 °FPassing clouds.2 mph89%29.81 "HgN/A
Weather by CustomWeather, © 2014

See weather overviewHow to use our weather pages